THORAD AGENA D DEB, 5060

Orbit data source: Space-Track

THORAD AGENA D DEB, 5060 is space debris in SSO originally from a launch on Wed, 08 Apr 1970 UTC launched from the Air Force Western Test Range (AFWTR). Debris objects in space refer to the collection of defunct objects orbiting the Earth. Examples of debris include non-operational satellites, rocket bodies, and fragments generated from explosions, collisions, or faulty payload assembly.

Loading next visibility...
Identifier
5060, 1970-025JE
Orbit
SSO
Country
Flag of USUS
Related business
Manufacturer
Unknown
Mission
Spacecraft
Bus & Motor
Unknown
Mass
Unknown
Launch date (UTC)
1970-04-08 (56 years ago)
Launch vehicle
Unknown
Launch site
Air Force Western Test Range (AFWTR)
Object type
Payload
Rocket body
Debris
Shape & HBR
Unknown shape, 0.1 m
Radar Cross Section
Small (<0.1 m²)

Expand to show TLE details & history
Last TLE update: 6 hours ago

TLE from 6 hours ago
0 THORAD AGENA D DEB
1 05060U 70025JE  25287.89524438  .00001186  00000-0  55111-3 0  9994
2 05060 100.0083 343.4396 0145465 103.8553 257.8850 14.17428837842809
Epoch: 2025-10-14T21:29Z
TLE epoch observation values (Epoch: 2025-10-14T21:29:09.114Z)
Latitude
0.00004°
Longitude
-2.52549°
Altitude
860.404 km
Speed
7.41 km/s
True Right ascension
22h 53m 45s
True Declination
0° 00' 00"
Sunlit
Object was in full shadow at epoch
Visualization orbit readout
Latitude
Unknown
Longitude
Unknown
Altitude
Unknown
Speed
Unknown
Apparent Right ascension
Unknown
Apparent Declination
Unknown
Sunlit
N/A
Visualization observer readout
Local Sidereal Time
22:01:22
Azimuth
Unknown
Elevation
Unknown
Doppler factor
Unknown
Orbital elements
Apogee altitude
936.161 km
Perigee altitude
726.417 km
Semi-major axis
7,209.426 km
Eccentricity
0.01455
Inclination
100.0083°
RAAN
343.4396°
Arg. of periapsis
103.8553°
True anomaly
256.26163°
Mean anomaly
257.885°
Eccentric anomaly
257.07267°
Mean motion
3.54562 °/min
Orbital period
101.53 mins
BSTAR
0.00055111

Documentation

Showing up to 5 results
|